DELTA 1 DEB, 14470

Orbit data source: Space-Track

DELTA 1 DEB, 14470 is space debris in SSO originally from a launch on Tue, 06 Nov 1973 UTC launched from the Air Force Western Test Range (AFWTR). Debris objects in space refer to the collection of defunct objects orbiting the Earth. Examples of debris include non-operational satellites, rocket bodies, and fragments generated from explosions, collisions, or faulty payload assembly.

Loading next visibility...
Identifier
14470, 1973-086GP
Orbit
SSO
Country
Flag of USUS
Related business
Manufacturer
Unknown
Mission
Spacecraft
Bus & Motor
Unknown
Mass
Unknown
Launch date (UTC)
1973-11-06 (52 years ago)
Launch vehicle
Unknown
Launch site
Air Force Western Test Range (AFWTR)
Object type
Payload
Rocket body
Debris
Shape & HBR
Unknown shape, 0.1 m
Radar Cross Section
Small (<0.1 m²)

Expand to show TLE details & history
Last TLE update: 8 hours ago

TLE from 8 hours ago
0 DELTA 1 DEB
1 14470U 73086GP  25292.22624285  .00000082  00000-0  53080-3 0  9990
2 14470 101.7667 177.6270 0122297 330.9521 151.3263 12.83991721   534
Epoch: 2025-10-19T05:25Z
TLE epoch observation values (Epoch: 2025-10-19T05:25:47.382Z)
Latitude
55.33888°
Longitude
-94.32183°
Altitude
1,417.382 km
Speed
7.118 km/s
True Right ascension
01h 00m 17s
True Declination
55° 11' 29"
Sunlit
Object was in full shadow at epoch
Visualization orbit readout
Latitude
Unknown
Longitude
Unknown
Altitude
Unknown
Speed
Unknown
Apparent Right ascension
Unknown
Apparent Declination
Unknown
Sunlit
N/A
Visualization observer readout
Local Sidereal Time
08:24:12
Azimuth
Unknown
Elevation
Unknown
Doppler factor
Unknown
Orbital elements
Apogee altitude
1,417.147 km
Perigee altitude
1,228.783 km
Semi-major axis
7,701.102 km
Eccentricity
0.01223
Inclination
101.7667°
RAAN
177.627°
Arg. of periapsis
330.9521°
True anomaly
151.98981°
Mean anomaly
151.3263°
Eccentric anomaly
151.65894°
Mean motion
3.21154 °/min
Orbital period
112.1 mins
BSTAR
0.0005308
Loading maneuver chart data...
Computing Atmospheric mass density...
Loading historical data...
Loading historical data...
Loading historical data...
Loading historical data...
Loading historical data...
Loading historical data...
Loading historical data...

Documentation

Showing up to 5 results
|